Content
SEND FEEDBACK

Daily
Averages
Monthly
Summary
United States of America

SOLEDAD, CALIFORNIA


Home > North America > United States > California
Elevation: 200 feet     Latitude: 36 26N     Longitude: 121 19W

WEATHER
 
SELECT A DAY
Number of Records: 202,556;   Date Range: 1/1/95 - 10/23/14
 
SHARE

PRINT THIS DATA

[ ← Previous Day ]
WEATHER ALMANAC - APRIL 26, 2013
[ Next Day → ]
[ °C ]   °F
Weather ElementAverageHighLow
Temperature53.3 °F64.9 °F (12:53 pm)44.1 °F (5:53 am)
Dewpoint46.2 °F48.9 °F (10:53 am)41 °F (5:53 am)
Humidity78 %93 % (6:53 am)56 % (11:53 am)
Barometer30.22 in30.26 in (8:53 am)30.17 in (1:53 am)
Wind Speed5.4 mph16.1 mph (5:53 pm)
Weather ElementAverage
Visibility8.9 mi
Wind DirectionSE (140.4 °)

Weather ElementTotal
Precipitation---
Heating Degree Days10.5 (Base 65)
Growing Degree Days4.5 (Base 50)
Averaged from 28 records on April 26, 2013
WEATHER CONDITIONS BREAKOUT
WIND DIRECTION BREAKOUT
WEATHER BY HOUR - APRIL 26, 2013
[ °C ]   °F
Local TimeTemperatureDewpointHumidityBarometerVisibilityWind DirectionWind SpeedGust SpeedPrecipitationEventsConditions
1:53 AM48.9 °F44.1 °F83 %30.17 in10.0 miCalmClear
2:53 AM48.0 °F44.1 °F86 %30.17 in10.0 miCalmClear
3:53 AM46.0 °F43.0 °F89 %30.17 in10.0 miCalmClear
4:53 AM46.9 °F43.0 °F86 %30.18 in10.0 miCalmClear
5:53 AM44.1 °F41.0 °F89 %30.19 in10.0 miCalmClear
6:53 AM44.1 °F42.1 °F93 %30.22 in8.0 miCalmMostly Cloudy
7:08 AM44.6 °F42.8 °F93 %30.20 in7.0 miCalmScattered Clouds
7:53 AM48.0 °F45.0 °F89 %30.25 in7.0 miCalmScattered Clouds
8:03 AM48.2 °F44.6 °F87 %30.22 in7.0 miCalmMostly Cloudy
8:53 AM51.1 °F46.0 °F83 %30.26 in8.0 miCalmOvercast
9:35 AM55.4 °F46.4 °F72 %30.23 in9.0 miCalmScattered Clouds
9:53 AM55.9 °F46.9 °F72 %30.26 in8.0 miCalmClear
10:53 AM60.1 °F48.9 °F67 %30.25 in9.0 miVariable5.8 mphClear
11:53 AM64.0 °F48.0 °F56 %30.25 in10.0 miVariable3.5 mphClear
12:53 PM64.9 °F48.9 °F56 %30.23 in8.0 miWest (280°)12.7 mphClear
1:53 PM63.0 °F48.9 °F60 %30.23 in10.0 miWest (280°)11.5 mphClear
2:53 PM63.0 °F48.9 °F60 %30.22 in10.0 miWest (270°)13.8 mphClear
3:53 PM61.0 °F48.0 °F62 %30.22 in10.0 miWest (280°)12.7 mphClear
4:53 PM60.1 °F48.0 °F64 %30.21 in10.0 miWest (270°)15.0 mphClear
5:53 PM57.9 °F48.0 °F70 %30.22 in10.0 miWest (270°)16.1 mphClear
6:53 PM55.0 °F48.0 °F77 %30.23 in9.0 miWest (280°)9.2 mphClear
7:53 PM52.0 °F46.9 °F83 %30.24 in8.0 miWest (280°)6.9 mphScattered Clouds
8:01 PM51.8 °F46.4 °F82 %30.21 in8.0 miWNW (290°)9.2 mphMostly Cloudy
8:27 PM51.8 °F46.4 °F82 %30.21 in9.0 miWest (270°)9.2 mphOvercast
8:53 PM52.0 °F46.9 °F83 %30.25 in9.0 miWest (280°)9.2 mphOvercast
9:53 PM51.1 °F46.9 °F86 %30.26 in9.0 miWNW (290°)5.8 mphOvercast
10:53 PM51.1 °F48.0 °F89 %30.26 in8.0 miWest (280°)4.6 mphOvercast
11:53 PM52.0 °F48.0 °F86 %30.25 in8.0 miNW (310°)5.8 mphOvercast
Hourly data recorded from KSNS, located miles away from Soledad, California







STORIES FROM OUR PARTNERS